RH
60 62 62 66 65 61 66 64 65 66 63 58 59 62 66 67 66 48 46 40 46 52 57 42 45 44 46 50 49 57 94 60 36 27 22 20 22 19 19 24 25 37 37 44 46
61 63 62 66 64 64 68 65 66 61 58 61 59 65 65 65 49 44 46 55 60 58 52 50 47 48 63 50 59 64 79 53 30 21 22 24 25 26 27 26 30 34 50 47 52
62 64 64 63 65 66 70 67 65 61 63 62 64 66 63 55 48 37 59 59 57 59 44 51 56 61 66 47 52 50 54 40 30 25 42 32 29 26 28 28 25 30 48 60 70
66 65 66 66 66 67 69 68 64 64 64 65 66 68 64 47 60 34 51 55 56 49 53 55 56 68 70 67 36 52 38 32 34 62 43 39 38 27 27 25 21 22 33 50 59
68 68 67 67 69 67 69 66 64 66 67 67 63 66 59 50 39 32 48 46 37 42 62 65 62 64 71 55 42 41 35 29 31 49 53 41 36 31 27 23 22 21 31 36 45
69 68 70 69 69 69 69 66 68 68 64 63 63 64 48 50 31 36 37 36 33 39 56 75 65 55 65 67 58 33 37 35 31 52 47 42 35 29 29 22 26 26 31 29 35
70 70 70 71 70 70 68 66 66 63 62 64 61 44 47 40 30 34 39 40 36 40 50 53 79 77 57 72 50 48 49 41 39 32 48 36 39 34 26 27 30 27 27 30 30
70 72 71 72 72 72 69 64 64 63 63 64 62 44 45 36 32 38 37 38 37 39 43 50 80 90 66 62 55 59 54 51 40 35 32 40 45 28 26 26 33 26 25 30 30
69 72 72 72 73 72 71 62 65 65 62 62 55 50 44 49 42 34 37 42 41 43 51 46 67 86 85 94 93 75 90 44 39 41 33 43 40 22 24 28 31 28 25 25 27
70 74 74 75 73 71 65 63 60 60 53 40 43 57 40 42 38 38 38 43 46 47 63 68 76 93 97 99 90 81 66 38 34 42 39 41 38 24 26 28 28 26 24 25 25
68 74 75 75 73 67 57 50 52 54 48 44 43 40 40 35 36 43 40 45 44 50 74 88 100 99 94 84 53 71 45 34 26 32 39 42 36 28 30 30 29 25 23 23 25
71 75 75 74 73 64 51 48 53 65 52 42 45 47 40 41 43 41 42 51 49 61 71 97 96 58 60 64 89 92 65 38 25 35 41 41 39 29 30 31 29 26 22 22 23
72 74 75 74 72 61 52 53 56 56 56 47 44 45 44 46 43 42 46 42 44 51 65 84 62 48 59 93 100 87 60 43 31 44 42 44 43 36 29 28 28 26 23 21 21
73 75 76 76 77 55 58 55 56 54 95 62 61 56 51 47 50 37 41 46 46 61 85 76 60 60 78 94 84 82 41 43 36 52 53 40 50 34 31 32 29 28 26 25 23
71 76 75 78 61 61 62 55 54 56 92 72 67 48 55 57 53 55 48 51 55 56 68 94 74 62 77 74 71 94 72 40 47 48 43 47 48 28 27 33 31 28 25 24 25
72 75 79 64 59 59 56 59 61 94 90 90 70 82 91 85 53 51 53 50 48 55 69 91 86 72 70 60 63 85 69 73 52 58 86 42 40 26 32 28 26 24 24 24 25
73 71 78 51 65 59 56 62 96 91 63 85 78 98 100 100 78 54 54 67 73 90 95 82 98 83 79 99 95 98 87 98 96 95 55 30 44 28 24 25 22 24 24 23 24
79 81 71 54 60 65 63 90 96 57 98 51 61 93 100 100 97 60 59 71 56 52 72 75 94 94 77 83 100 100 97 87 76 70 46 41 43 30 21 20 24 24 22 22 24
85 66 66 70 66 69 70 100 80 95 52 98 69 100 99 99 98 81 88 60 39 46 87 69 92 82 67 71 79 99 95 58 59 34 43 38 29 27 27 27 29 27 27 28 27
55 60 76 74 70 68 79 72 57 50 65 65 94 66 87 100 100 100 81 47 41 33 49 96 92 62 79 69 81 97 94 75 86 70 56 39 27 30 32 29 28 28 28 27 25
58 56 80 74 72 66 94 66 55 51 53 60 56 71 85 99 92 98 82 57 38 34 41 74 88 100 84 78 92 98 99 79 56 64 45 51 32 26 29 29 28 26 26 25 26
55 76 76 70 80 71 64 48 61 42 43 60 82 96 98 98 89 100 97 75 38 35 56 76 91 94 98 71 51 65 72 52 74 66 61 62 40 26 30 32 30 29 36 35 35
34 62 67 72 79 70 41 47 39 42 52 44 74 74 56 98 95 94 100 78 51 44 74 77 86 96 99 90 85 86 74 69 51 78 78 62 42 26 31 31 28 30 33 39 42
35 85 46 40 40 47 56 54 46 40 46 47 51 53 59 62 80 93 100 86 55 53 80 75 94 97 77 65 64 96 75 55 86 86 46 48 37 32 30 32 28 30 32 38 44
42 69 46 46 44 42 46 47 49 53 44 41 47 52 99 77 57 78 100 97 82 78 80 84 98 61 55 54 55 68 68 61 97 63 83 44 42 29 25 29 28 28 35 40 45
39 59 42 37 44 41 44 44 52 54 52 49 57 58 73 81 93 95 93 100 100 89 95 68 80 59 75 56 56 65 57 59 58 54 51 49 49 33 30 29 29 27 34 41 46
54 53 42 47 40 40 46 50 54 54 47 47 55 60 72 70 56 60 64 73 90 94 81 60 60 66 76 55 52 66 57 59 57 53 53 65 47 36 36 33 35 32 34 38 42
Wind_Speed
13 13 14 14 12 13 12 12 14 13 14 15 14 12 10 8 7 10 12 9 10 11 10 8 9 13 13 14 15 8 5 17 29 26 24 21 17 13 3 11 4 4 8 7 12
13 14 13 15 14 14 14 14 13 14 14 14 12 12 7 5 10 10 5 8 13 16 12 12 12 14 13 16 10 13 8 23 24 23 18 18 20 14 11 10 8 9 7 9 13
14 13 14 13 14 14 15 14 15 15 14 12 9 6 3 9 8 3 8 7 15 13 15 12 6 7 16 15 14 15 21 22 18 19 14 4 17 19 15 15 11 9 9 9 12
15 13 14 14 14 15 15 14 14 14 10 7 5 2 5 8 2 3 4 9 13 11 9 11 9 8 8 15 18 13 27 19 20 4 7 13 12 17 14 13 7 9 10 9 13
15 14 13 14 14 13 14 14 13 10 7 3 1 5 7 6 1 5 7 7 9 4 11 10 12 13 11 15 15 23 11 19 15 2 9 15 20 22 16 14 6 7 10 11 10
15 14 14 14 14 12 12 12 10 6 3 1 1 4 7 7 4 5 6 2 4 4 6 5 8 11 9 8 10 14 16 10 14 12 15 20 18 12 13 15 8 9 11 9 12
15 15 14 15 14 11 9 9 6 3 3 4 2 7 7 5 2 1 2 5 4 6 7 7 9 13 10 7 15 11 10 16 11 16 10 8 14 21 17 11 13 14 13 11 9
14 14 14 16 14 9 7 7 4 4 5 2 4 6 2 2 5 5 4 1 3 6 5 4 12 9 6 1 4 16 14 17 16 16 17 14 20 20 16 15 15 16 14 14 13
14 15 14 14 14 7 7 7 5 5 2 4 7 5 1 5 4 1 3 4 2 1 2 3 8 4 1 5 8 12 9 21 20 14 16 17 15 22 19 19 16 15 15 14 16
12 14 14 14 10 7 8 5 3 7 7 5 5 6 4 2 2 1 1 4 3 2 1 1 5 5 5 5 7 15 22 23 24 20 19 19 19 12 17 19 17 16 16 16 16
12 14 13 14 6 5 7 4 6 7 8 7 4 6 2 2 3 4 2 5 6 5 2 3 4 9 15 15 10 7 22 18 23 18 20 19 21 14 9 14 17 17 16 17 16
12 13 13 11 6 4 5 5 4 5 7 7 5 5 3 2 5 5 3 6 6 6 6 4 10 14 11 14 10 9 14 20 21 15 18 17 19 17 14 14 15 15 16 14 16
11 12 11 9 3 5 3 3 3 4 6 4 5 5 2 3 7 3 5 2 8 8 4 9 5 11 12 10 8 9 16 19 22 12 12 11 16 17 16 17 14 13 14 16 16
10 10 9 7 5 2 1 1 3 3 4 7 4 2 2 3 5 0 4 7 4 4 5 9 5 11 14 7 9 11 15 14 17 15 11 14 7 18 19 20 19 17 17 15 14
9 9 4 3 5 3 3 1 2 4 4 2 2 4 3 7 4 6 2 5 10 3 2 2 5 12 14 12 12 3 15 7 14 14 11 14 8 14 24 22 20 19 18 16 15
8 6 4 4 2 3 1 2 4 3 1 1 2 2 3 5 4 1 4 4 3 5 5 4 2 3 2 11 12 5 7 11 8 8 7 13 15 11 12 16 18 16 18 16 16
6 3 5 1 4 2 2 3 3 3 3 0 4 3 4 3 5 6 6 5 4 4 3 2 3 4 8 7 5 3 5 5 5 4 6 15 13 3 8 3 10 17 17 17 15
3 7 2 5 4 2 2 2 3 8 3 7 5 3 3 6 3 6 4 6 11 7 4 4 4 4 8 1 3 3 2 2 7 9 12 3 8 8 8 5 7 6 5 13 16
10 4 3 5 2 3 3 2 6 5 13 8 15 2 4 4 1 6 5 5 5 11 4 4 5 7 2 3 6 4 6 7 6 1 8 9 7 7 5 5 5 7 7 8 8
3 4 4 2 3 4 2 5 7 11 10 8 4 6 8 2 5 5 6 6 4 11 1 4 5 9 8 6 2 3 7 3 3 4 5 5 11 7 9 8 7 7 11 11 8
3 3 2 3 4 2 3 5 7 11 8 6 7 6 5 3 5 5 1 1 6 10 7 0 3 3 7 7 9 5 3 8 5 3 4 7 5 10 9 7 5 2 2 5 6
2 1 1 2 2 2 4 7 5 12 10 5 7 5 5 4 4 3 4 3 5 10 5 3 3 4 2 4 6 3 6 9 4 4 2 3 6 6 10 7 7 7 3 2 3
0 3 3 4 3 4 6 4 7 9 7 7 5 4 9 4 4 6 2 5 6 8 2 7 2 4 5 4 2 4 6 7 2 3 1 5 7 7 5 3 6 6 4 4 5
2 2 3 1 1 3 5 5 8 5 4 6 4 2 8 8 6 7 7 3 1 1 8 6 0 4 3 5 10 6 11 11 2 2 2 4 6 7 6 4 5 6 2 2 5
2 2 2 1 2 2 3 5 8 8 5 8 1 9 3 6 5 7 6 6 5 4 4 3 2 2 4 5 5 8 12 12 5 5 3 5 6 5 3 1 3 3 2 3 5
2 3 2 4 2 4 3 5 7 7 3 4 6 9 3 4 4 5 9 2 1 3 3 4 2 1 2 3 1 3 5 10 8 10 12 12 16 10 9 9 10 6 3 2 6
2 1 4 4 3 3 3 5 4 7 2 4 7 7 2 3 10 9 7 10 4 2 4 3 1 2 3 2 3 3 6 8 7 5 10 11 9 8 6 6 3 3 1 3 6
Wind_Direction
344 337 331 337 335 326 315 312 311 323 319 315 311 306 306 271 258 243 253 317 324 317 274 260 258 237 230 230 214 222 219 215 225 216 216 170 180 189 178 125 108 75 41 82 131
338 336 333 329 336 325 330 318 325 323 316 310 314 309 299 250 251 268 29 0 321 281 255 246 234 225 214 217 197 218 231 220 220 229 224 168 183 171 185 155 145 122 107 115 140
334 332 329 329 329 325 333 334 329 319 310 312 317 310 230 237 257 237 71 331 335 274 236 262 238 230 230 225 196 217 234 220 226 249 347 165 204 164 201 185 180 161 142 134 127
330 331 331 329 326 325 333 336 323 316 327 326 314 221 228 233 277 43 331 309 313 306 209 213 217 220 227 220 207 233 226 245 248 342 217 231 270 205 216 213 191 173 153 154 156
326 330 329 325 324 327 329 335 331 336 333 315 319 194 217 216 295 38 309 282 275 301 220 212 230 207 213 218 219 219 239 226 240 282 186 252 199 238 201 238 146 197 158 176 162
329 331 330 321 323 326 332 332 0 12 38 32 247 219 253 249 38 29 14 338 294 291 190 191 237 211 231 252 255 207 225 258 222 151 273 206 227 224 252 214 183 178 185 188 166
331 327 327 321 322 320 328 330 3 10 29 16 179 259 248 41 318 6 354 47 4 351 312 166 223 268 170 205 248 276 257 228 251 220 195 239 231 228 230 172 214 193 192 191 171
328 327 324 322 324 323 326 313 320 298 327 277 260 273 304 103 301 241 226 115 69 6 327 336 159 306 220 234 259 242 262 214 208 218 209 194 229 221 208 227 211 206 199 193 187
326 325 323 321 324 326 321 294 287 316 305 264 253 261 174 126 210 226 241 300 344 4 358 265 167 196 258 179 204 198 214 213 205 210 211 194 229 225 198 199 201 212 214 216 207
326 322 320 318 322 332 320 271 258 262 228 238 251 246 167 175 121 12 214 255 279 293 47 287 237 176 233 183 199 176 214 198 200 184 208 204 233 240 184 215 215 217 224 211 227
334 321 320 321 328 344 295 229 216 200 224 269 339 291 269 84 185 195 207 221 238 249 207 2 277 206 210 210 207 334 213 204 198 178 202 211 211 196 209 209 215 217 213 222 215
327 321 319 323 326 306 279 274 13 347 290 211 251 258 265 325 265 194 232 245 225 259 144 176 240 231 229 208 223 255 245 216 194 165 188 213 206 222 185 210 219 219 221 210 228
329 319 317 328 306 249 340 354 348 314 260 166 224 251 249 252 263 212 223 263 271 283 260 258 275 242 202 182 151 228 232 206 190 156 186 212 227 216 224 230 214 228 234 230 225
323 316 316 325 246 9 0 65 296 331 272 144 205 141 211 250 257 200 241 289 242 306 326 272 249 219 177 161 151 244 209 212 199 174 192 215 213 216 224 225 225 226 225 228 235
322 307 309 306 342 322 17 231 299 235 283 129 146 85 161 247 10 162 158 232 271 269 226 258 220 192 185 181 164 292 327 194 192 189 191 193 245 257 192 215 215 215 222 218 222
316 300 168 187 216 51 226 282 241 239 293 204 219 216 201 232 214 97 216 224 324 286 267 247 4 324 175 149 187 49 244 229 180 201 210 191 212 228 187 222 210 213 211 216 210
314 197 188 355 28 128 234 238 274 302 92 134 278 190 223 189 221 205 203 203 234 221 188 157 52 80 117 87 54 55 197 149 156 197 224 209 190 239 84 140 224 208 212 210 208
152 161 143 39 108 198 273 273 277 17 283 344 305 178 239 154 212 210 179 245 230 248 195 145 150 157 159 27 116 191 248 222 171 188 178 154 222 221 250 257 179 252 277 218 202
152 151 120 64 155 278 313 305 12 3 335 334 321 281 205 160 251 206 221 261 219 204 259 129 109 117 149 110 132 136 226 317 306 208 165 163 239 281 189 204 223 213 208 219 228
191 173 62 357 279 284 324 317 348 354 334 329 328 353 334 109 203 203 172 172 194 198 96 22 108 139 125 106 96 268 334 241 238 170 181 168 204 96 176 172 174 204 205 201 204
218 217 85 310 260 241 5 322 331 339 1 315 332 300 303 303 229 171 359 161 202 182 193 235 297 115 150 204 168 151 242 232 282 286 250 145 165 92 105 95 100 109 220 236 226
184 316 106 276 266 298 359 342 340 353 3 21 344 20 328 317 291 151 242 276 168 153 182 195 294 146 160 135 197 141 235 236 259 182 359 301 93 142 115 89 43 61 109 144 217
63 104 175 263 12 340 351 328 356 356 3 2 17 341 357 285 310 63 292 294 253 183 26 153 203 138 128 133 73 199 221 219 307 317 48 318 125 161 137 18 56 20 48 131 149
183 133 139 170 10 326 345 329 360 28 38 357 339 37 353 20 354 34 16 348 178 316 24 349 10 335 67 74 126 182 197 203 161 286 352 290 106 171 196 246 25 23 35 122 160
18 112 25 138 92 353 320 329 349 5 351 356 284 27 24 359 6 23 16 1 6 27 10 326 306 61 45 67 91 158 181 186 182 217 235 315 258 273 351 351 355 356 72 148 175
164 149 181 116 163 248 8 18 352 355 306 15 354 351 354 41 12 326 342 35 26 21 3 252 306 165 56 63 63 105 173 196 224 233 244 261 280 303 297 302 291 257 21 206 197
119 112 274 145 163 250 14 346 339 338 163 321 322 315 338 347 317 294 271 282 256 280 263 260 234 236 105 169 163 197 218 203 213 236 239 242 259 325 291 295 340 261 271 260 213